Location: Devore Heights
(34.2372°N, 117.4156°W)
Time: 23:21:08
(UTC+00:00)

Transit 4A - Pass Details

Date: 15 September 2024
Orbit: 864 x 978 km, 66.8° (Epoch: 13 October)

Event Time Altitude Azimuth Distance (km) Brightness Sun altitude
Rises 20:41:38 0° 324° (NW) 3,624 10.8 55.7°
Reaches altitude 10° 20:44:21 10° 316° (NW) 2,690 10.3 55.4°
Maximum altitude 20:50:01 37° 251° (WSW) 1,470 10.1 54.9°
Drops below altitude 10° 20:55:46 10° 187° (S) 2,714 11.0 54.3°
Sets 20:58:31 0° 179° (S) 3,660 11.4 54.0°
